Precipitable_Water
0.52 0.52 0.51 0.51 0.51 0.51 0.50 0.50 0.49 0.49 0.49 0.49 0.49 0.49 0.48 0.48 0.47 0.47 0.46 0.46 0.46 0.45 0.45 0.43 0.43 0.44 0.45 0.46 0.47 0.46 0.44 0.33 0.28 0.26 0.22 0.27 0.31 0.34 0.33 0.35 0.38 0.43 0.40 0.36 0.33 0.31 0.27 0.29 0.29 0.34 0.32 0.32 0.31 0.30 0.37 0.36 0.36 0.32 0.23 0.19 0.17 0.16 0.16 0.18 0.16 0.17 0.19 0.17 0.20 0.21 0.22 0.20 0.18 0.23 0.24 0.26 0.23 0.23 0.22 0.22 0.23 0.25 0.24 0.25 0.26 0.28 0.31 0.33
0.53 0.52 0.52 0.51 0.51 0.51 0.51 0.50 0.50 0.50 0.49 0.49 0.49 0.49 0.48 0.48 0.47 0.47 0.47 0.46 0.46 0.46 0.45 0.45 0.43 0.43 0.45 0.46 0.48 0.48 0.41 0.32 0.25 0.24 0.21 0.35 0.38 0.38 0.39 0.39 0.40 0.41 0.39 0.32 0.29 0.28 0.25 0.25 0.28 0.31 0.30 0.26 0.36 0.28 0.36 0.30 0.39 0.26 0.23 0.21 0.16 0.19 0.19 0.21 0.20 0.21 0.19 0.19 0.21 0.22 0.23 0.22 0.20 0.23 0.24 0.20 0.20 0.21 0.19 0.19 0.20 0.20 0.21 0.23 0.25 0.26 0.27 0.30
0.53 0.53 0.52 0.51 0.51 0.50 0.50 0.51 0.51 0.51 0.51 0.50 0.49 0.49 0.48 0.47 0.48 0.47 0.46 0.46 0.46 0.45 0.45 0.45 0.45 0.43 0.43 0.46 0.47 0.47 0.39 0.28 0.21 0.18 0.25 0.38 0.41 0.42 0.44 0.44 0.43 0.42 0.36 0.31 0.32 0.30 0.26 0.26 0.29 0.29 0.28 0.25 0.30 0.26 0.32 0.29 0.32 0.30 0.24 0.19 0.19 0.22 0.23 0.23 0.23 0.22 0.23 0.23 0.21 0.21 0.23 0.22 0.23 0.24 0.25 0.20 0.19 0.20 0.17 0.16 0.18 0.18 0.17 0.20 0.22 0.24 0.25 0.27
0.54 0.53 0.52 0.51 0.51 0.51 0.51 0.52 0.52 0.51 0.50 0.50 0.49 0.49 0.49 0.49 0.48 0.48 0.47 0.47 0.46 0.46 0.46 0.45 0.44 0.43 0.43 0.44 0.47 0.44 0.34 0.21 0.16 0.23 0.34 0.44 0.47 0.45 0.46 0.46 0.44 0.42 0.39 0.36 0.35 0.31 0.31 0.30 0.29 0.29 0.26 0.23 0.26 0.31 0.25 0.30 0.25 0.31 0.25 0.19 0.21 0.24 0.21 0.23 0.25 0.25 0.25 0.24 0.22 0.22 0.23 0.22 0.24 0.24 0.23 0.20 0.18 0.18 0.17 0.19 0.17 0.16 0.18 0.20 0.23 0.23 0.25 0.25
0.55 0.54 0.53 0.52 0.52 0.52 0.52 0.52 0.52 0.52 0.51 0.50 0.50 0.50 0.49 0.49 0.49 0.48 0.48 0.47 0.47 0.46 0.47 0.46 0.44 0.43 0.42 0.45 0.42 0.42 0.25 0.15 0.19 0.28 0.41 0.45 0.47 0.44 0.45 0.47 0.45 0.42 0.39 0.37 0.36 0.34 0.32 0.29 0.28 0.28 0.25 0.22 0.24 0.26 0.24 0.28 0.31 0.28 0.22 0.24 0.24 0.24 0.21 0.24 0.25 0.26 0.25 0.26 0.24 0.23 0.21 0.21 0.26 0.24 0.21 0.21 0.17 0.15 0.16 0.19 0.20 0.20 0.20 0.20 0.21 0.22 0.24 0.23
0.56 0.55 0.55 0.54 0.53 0.53 0.54 0.53 0.52 0.52 0.52 0.51 0.51 0.51 0.51 0.50 0.50 0.50 0.50 0.49 0.49 0.49 0.49 0.48 0.47 0.44 0.44 0.46 0.44 0.35 0.23 0.12 0.26 0.28 0.41 0.42 0.46 0.47 0.48 0.48 0.46 0.42 0.39 0.36 0.33 0.33 0.30 0.29 0.28 0.24 0.23 0.22 0.22 0.20 0.24 0.27 0.31 0.19 0.24 0.24 0.24 0.26 0.23 0.26 0.25 0.26 0.26 0.24 0.23 0.21 0.23 0.25 0.23 0.21 0.23 0.23 0.20 0.17 0.19 0.21 0.21 0.21 0.21 0.22 0.23 0.23 0.22 0.22
0.58 0.57 0.57 0.56 0.55 0.55 0.56 0.56 0.54 0.54 0.54 0.54 0.53 0.53 0.53 0.53 0.52 0.53 0.53 0.52 0.52 0.53 0.52 0.51 0.50 0.48 0.47 0.47 0.46 0.31 0.24 0.23 0.28 0.39 0.45 0.50 0.50 0.51 0.51 0.49 0.46 0.41 0.38 0.34 0.32 0.30 0.30 0.27 0.26 0.24 0.23 0.23 0.24 0.23 0.26 0.27 0.31 0.25 0.20 0.25 0.24 0.27 0.24 0.27 0.27 0.29 0.28 0.26 0.24 0.26 0.28 0.23 0.23 0.19 0.23 0.24 0.23 0.22 0.22 0.23 0.22 0.22 0.23 0.23 0.22 0.22 0.21 0.22
0.63 0.61 0.61 0.60 0.59 0.59 0.60 0.59 0.59 0.59 0.58 0.58 0.57 0.56 0.56 0.55 0.55 0.54 0.55 0.55 0.55 0.54 0.56 0.53 0.52 0.50 0.50 0.41 0.32 0.26 0.25 0.24 0.32 0.45 0.54 0.53 0.55 0.54 0.51 0.48 0.44 0.42 0.38 0.34 0.32 0.30 0.30 0.26 0.24 0.27 0.24 0.21 0.25 0.24 0.28 0.26 0.29 0.24 0.23 0.25 0.26 0.27 0.27 0.28 0.29 0.29 0.29 0.28 0.29 0.29 0.25 0.22 0.24 0.24 0.25 0.23 0.24 0.25 0.24 0.24 0.24 0.24 0.25 0.24 0.23 0.22 0.22 0.22
0.69 0.67 0.67 0.67 0.67 0.67 0.66 0.66 0.66 0.64 0.63 0.63 0.62 0.62 0.62 0.61 0.60 0.59 0.59 0.59 0.59 0.57 0.56 0.56 0.54 0.51 0.52 0.39 0.29 0.24 0.23 0.35 0.40 0.51 0.60 0.56 0.55 0.53 0.52 0.43 0.47 0.42 0.40 0.39 0.39 0.36 0.32 0.29 0.29 0.29 0.23 0.25 0.29 0.26 0.28 0.25 0.22 0.27 0.25 0.28 0.27 0.27 0.27 0.28 0.27 0.27 0.27 0.27 0.28 0.26 0.23 0.24 0.26 0.27 0.24 0.22 0.23 0.24 0.25 0.25 0.25 0.25 0.25 0.25 0.25 0.25 0.24 0.23
0.75 0.74 0.73 0.74 0.74 0.73 0.73 0.74 0.73 0.72 0.71 0.71 0.71 0.70 0.69 0.69 0.68 0.68 0.67 0.67 0.66 0.66 0.63 0.63 0.60 0.57 0.43 0.34 0.32 0.24 0.34 0.46 0.53 0.61 0.63 0.60 0.57 0.53 0.52 0.51 0.48 0.45 0.41 0.41 0.41 0.39 0.35 0.34 0.32 0.36 0.34 0.30 0.32 0.28 0.30 0.28 0.24 0.30 0.29 0.28 0.27 0.27 0.27 0.27 0.25 0.25 0.26 0.25 0.27 0.23 0.22 0.23 0.27 0.25 0.19 0.23 0.23 0.25 0.25 0.25 0.25 0.25 0.24 0.25 0.26 0.26 0.27 0.27
0.82 0.81 0.82 0.81 0.81 0.81 0.81 0.81 0.80 0.80 0.80 0.79 0.79 0.77 0.76 0.75 0.74 0.74 0.74 0.74 0.75 0.75 0.75 0.73 0.75 0.63 0.47 0.44 0.33 0.29 0.54 0.53 0.61 0.64 0.64 0.63 0.57 0.52 0.50 0.52 0.51 0.47 0.45 0.44 0.42 0.43 0.43 0.41 0.42 0.40 0.36 0.30 0.32 0.30 0.30 0.29 0.32 0.30 0.29 0.28 0.27 0.27 0.27 0.27 0.27 0.26 0.26 0.24 0.26 0.25 0.23 0.24 0.26 0.25 0.21 0.21 0.24 0.25 0.24 0.25 0.25 0.25 0.25 0.26 0.26 0.27 0.28 0.29
0.85 0.86 0.85 0.85 0.86 0.86 0.86 0.86 0.86 0.85 0.85 0.85 0.84 0.81 0.79 0.78 0.76 0.75 0.75 0.75 0.75 0.78 0.79 0.81 0.77 0.76 0.60 0.51 0.43 0.42 0.55 0.57 0.66 0.65 0.64 0.64 0.57 0.56 0.57 0.57 0.55 0.52 0.48 0.43 0.44 0.47 0.47 0.45 0.44 0.38 0.29 0.37 0.28 0.32 0.30 0.35 0.33 0.31 0.31 0.25 0.26 0.26 0.24 0.25 0.25 0.25 0.26 0.24 0.27 0.27 0.23 0.20 0.21 0.20 0.22 0.24 0.25 0.25 0.24 0.24 0.24 0.25 0.26 0.27 0.27 0.28 0.28 0.29
0.91 0.92 0.90 0.91 0.90 0.90 0.89 0.89 0.89 0.88 0.88 0.89 0.88 0.86 0.84 0.82 0.79 0.78 0.77 0.76 0.76 0.76 0.78 0.82 0.81 0.76 0.62 0.48 0.52 0.65 0.68 0.71 0.72 0.73 0.71 0.71 0.65 0.64 0.62 0.60 0.57 0.55 0.53 0.47 0.46 0.50 0.49 0.47 0.45 0.37 0.38 0.34 0.32 0.27 0.33 0.36 0.33 0.33 0.31 0.28 0.25 0.24 0.22 0.25 0.26 0.25 0.25 0.25 0.28 0.27 0.17 0.19 0.21 0.23 0.24 0.25 0.25 0.25 0.24 0.23 0.24 0.24 0.25 0.26 0.27 0.27 0.28 0.29
0.95 0.96 0.96 0.95 0.95 0.94 0.93 0.92 0.91 0.91 0.90 0.89 0.89 0.87 0.84 0.82 0.81 0.81 0.80 0.79 0.81 0.80 0.81 0.79 0.78 0.66 0.57 0.49 0.58 0.69 0.76 0.75 0.74 0.69 0.66 0.69 0.62 0.60 0.61 0.60 0.59 0.56 0.55 0.49 0.49 0.50 0.49 0.50 0.46 0.42 0.43 0.35 0.32 0.41 0.35 0.34 0.34 0.28 0.30 0.30 0.24 0.22 0.20 0.25 0.24 0.25 0.23 0.27 0.27 0.27 0.18 0.19 0.22 0.24 0.26 0.27 0.26 0.25 0.23 0.23 0.24 0.24 0.24 0.25 0.26 0.27 0.28 0.29
0.99 0.98 0.98 0.97 0.97 0.96 0.95 0.94 0.93 0.93 0.93 0.93 0.92 0.90 0.86 0.82 0.83 0.81 0.82 0.79 0.80 0.81 0.78 0.78 0.72 0.55 0.47 0.48 0.60 0.69 0.72 0.70 0.61 0.61 0.66 0.60 0.57 0.54 0.54 0.57 0.54 0.54 0.54 0.52 0.49 0.50 0.50 0.48 0.44 0.38 0.35 0.40 0.39 0.34 0.31 0.30 0.31 0.30 0.25 0.22 0.26 0.22 0.22 0.25 0.27 0.26 0.22 0.26 0.29 0.25 0.19 0.20 0.22 0.24 0.26 0.27 0.27 0.26 0.24 0.24 0.24 0.24 0.24 0.25 0.25 0.26 0.27 0.28
1.02 1.01 1.01 1.00 0.98 0.96 0.95 0.94 0.94 0.94 0.94 0.94 0.93 0.90 0.86 0.86 0.83 0.84 0.83 0.80 0.80 0.80 0.81 0.63 0.60 0.54 0.46 0.41 0.51 0.73 0.63 0.53 0.54 0.64 0.68 0.64 0.60 0.54 0.60 0.57 0.58 0.56 0.55 0.52 0.54 0.51 0.49 0.47 0.38 0.38 0.37 0.38 0.34 0.31 0.30 0.28 0.28 0.30 0.26 0.23 0.24 0.25 0.24 0.24 0.27 0.29 0.28 0.27 0.28 0.25 0.19 0.22 0.23 0.27 0.28 0.29 0.28 0.27 0.26 0.26 0.26 0.26 0.27 0.27 0.28 0.29 0.30 0.31
1.04 1.03 1.03 1.02 1.01 0.99 0.98 0.97 0.97 0.96 0.96 0.95 0.94 0.90 0.87 0.87 0.86 0.85 0.84 0.84 0.81 0.83 0.72 0.56 0.60 0.58 0.42 0.55 0.66 0.52 0.50 0.57 0.65 0.63 0.64 0.66 0.63 0.59 0.57 0.56 0.53 0.54 0.57 0.56 0.55 0.53 0.49 0.44 0.44 0.42 0.41 0.36 0.37 0.34 0.28 0.26 0.26 0.28 0.30 0.26 0.28 0.25 0.24 0.23 0.28 0.31 0.32 0.30 0.27 0.29 0.25 0.25 0.27 0.30 0.32 0.33 0.32 0.31 0.29 0.29 0.29 0.30 0.30 0.31 0.31 0.31 0.32 0.32
1.03 1.04 1.03 1.04 1.03 1.03 1.03 1.03 1.02 1.01 0.99 0.98 0.94 0.86 0.84 0.88 0.88 0.84 0.80 0.80 0.81 0.76 0.71 0.71 0.63 0.53 0.47 0.56 0.46 0.48 0.58 0.56 0.60 0.62 0.64 0.66 0.66 0.62 0.58 0.53 0.54 0.53 0.53 0.50 0.54 0.47 0.49 0.43 0.45 0.37 0.39 0.38 0.36 0.33 0.27 0.23 0.27 0.28 0.28 0.27 0.26 0.28 0.28 0.26 0.27 0.31 0.33 0.32 0.29 0.29 0.27 0.27 0.29 0.31 0.32 0.33 0.35 0.34 0.32 0.33 0.33 0.33 0.33 0.33 0.33 0.33 0.33 0.34
1.10 1.10 1.08 1.08 1.08 1.07 1.08 1.09 1.08 1.06 1.04 1.01 0.95 0.91 0.91 0.90 0.84 0.79 0.67 0.65 0.58 0.51 0.46 0.49 0.49 0.39 0.37 0.46 0.53 0.54 0.57 0.61 0.66 0.63 0.58 0.63 0.65 0.63 0.61 0.60 0.56 0.51 0.45 0.44 0.45 0.46 0.47 0.44 0.43 0.38 0.33 0.34 0.34 0.35 0.32 0.32 0.33 0.30 0.30 0.29 0.29 0.26 0.27 0.27 0.29 0.33 0.32 0.29 0.28 0.27 0.25 0.26 0.27 0.28 0.31 0.33 0.34 0.33 0.34 0.35 0.34 0.34 0.34 0.34 0.34 0.35 0.37 0.39
1.17 1.17 1.15 1.15 1.15 1.14 1.13 1.14 1.15 1.12 1.11 1.04 0.97 0.86 0.79 0.67 0.61 0.57 0.65 0.62 0.54 0.51 0.50 0.51 0.52 0.51 0.51 0.52 0.52 0.62 0.69 0.68 0.55 0.60 0.62 0.65 0.61 0.57 0.55 0.55 0.51 0.51 0.46 0.40 0.44 0.45 0.48 0.37 0.34 0.34 0.35 0.37 0.39 0.38 0.37 0.36 0.35 0.33 0.32 0.30 0.28 0.27 0.27 0.30 0.30 0.33 0.33 0.28 0.26 0.26 0.26 0.25 0.26 0.28 0.30 0.32 0.33 0.33 0.33 0.33 0.34 0.34 0.34 0.35 0.35 0.37 0.38 0.39
1.25 1.23 1.22 1.22 1.22 1.21 1.20 1.20 1.21 1.18 1.13 1.05 0.97 0.84 0.66 0.67 0.57 0.53 0.63 0.69 0.74 0.73 0.67 0.66 0.63 0.58 0.54 0.58 0.61 0.59 0.52 0.53 0.58 0.57 0.60 0.69 0.60 0.54 0.47 0.49 0.45 0.41 0.43 0.45 0.43 0.47 0.45 0.36 0.35 0.38 0.40 0.40 0.39 0.39 0.38 0.36 0.35 0.32 0.30 0.28 0.26 0.28 0.25 0.29 0.30 0.33 0.33 0.27 0.25 0.27 0.26 0.26 0.27 0.29 0.30 0.32 0.32 0.31 0.31 0.32 0.33 0.33 0.35 0.37 0.38 0.38 0.39 0.39
1.33 1.32 1.31 1.30 1.30 1.29 1.28 1.27 1.26 1.23 1.15 1.06 0.96 0.83 0.82 0.83 0.90 0.93 0.83 0.65 0.79 0.84 0.81 0.78 0.78 0.71 0.77 0.73 0.73 0.71 0.66 0.55 0.55 0.59 0.66 0.64 0.55 0.47 0.46 0.45 0.41 0.38 0.43 0.43 0.42 0.38 0.35 0.33 0.37 0.40 0.42 0.41 0.39 0.38 0.37 0.34 0.32 0.31 0.28 0.27 0.26 0.27 0.30 0.32 0.32 0.32 0.32 0.29 0.25 0.27 0.25 0.26 0.28 0.29 0.31 0.31 0.31 0.32 0.34 0.35 0.36 0.37 0.38 0.39 0.39 0.38 0.38 0.39
1.40 1.39 1.38 1.37 1.35 1.35 1.35 1.35 1.32 1.26 1.12 1.02 0.92 0.89 0.89 0.97 1.01 1.01 0.93 0.76 0.68 0.81 0.78 0.77 0.71 0.72 0.73 0.79 0.76 0.77 0.61 0.55 0.51 0.59 0.62 0.63 0.55 0.51 0.49 0.43 0.41 0.41 0.42 0.41 0.35 0.34 0.30 0.33 0.38 0.41 0.40 0.37 0.36 0.36 0.35 0.33 0.32 0.30 0.29 0.28 0.27 0.31 0.28 0.24 0.30 0.32 0.32 0.30 0.27 0.28 0.26 0.27 0.30 0.31 0.31 0.33 0.33 0.34 0.37 0.40 0.40 0.41 0.39 0.39 0.38 0.37 0.37 0.36
1.40 1.41 1.41 1.41 1.40 1.37 1.38 1.36 1.34 1.21 1.10 1.04 0.99 0.97 1.05 1.06 1.03 0.98 0.83 0.65 0.60 0.70 0.74 0.74 0.74 0.71 0.70 0.68 0.76 0.74 0.65 0.63 0.63 0.60 0.74 0.66 0.56 0.59 0.53 0.49 0.45 0.44 0.41 0.42 0.40 0.37 0.34 0.38 0.42 0.40 0.39 0.37 0.34 0.35 0.33 0.32 0.30 0.33 0.33 0.32 0.30 0.30 0.31 0.30 0.29 0.33 0.34 0.34 0.34 0.31 0.28 0.28 0.29 0.28 0.30 0.34 0.35 0.37 0.40 0.39 0.39 0.40 0.39 0.39 0.39 0.39 0.38 0.36
1.43 1.44 1.44 1.41 1.40 1.41 1.37 1.36 1.19 1.12 1.16 1.09 1.04 1.10 1.11 1.10 1.04 0.99 0.78 0.65 0.62 0.61 0.79 0.72 0.76 0.72 0.73 0.82 0.78 0.66 0.66 0.66 0.65 0.67 0.73 0.70 0.61 0.58 0.53 0.57 0.51 0.43 0.44 0.44 0.42 0.39 0.38 0.44 0.45 0.40 0.39 0.38 0.36 0.34 0.35 0.35 0.31 0.33 0.36 0.34 0.33 0.34 0.33 0.34 0.36 0.33 0.31 0.30 0.34 0.32 0.23 0.22 0.28 0.30 0.32 0.35 0.37 0.37 0.40 0.37 0.36 0.36 0.37 0.37 0.35 0.36 0.37 0.38
1.48 1.47 1.44 1.43 1.42 1.40 1.41 1.16 1.13 1.19 1.12 1.04 1.10 1.17 1.16 1.15 1.06 1.00 0.77 0.55 0.43 0.56 0.66 0.53 0.70 0.56 0.73 0.60 0.66 0.65 0.65 0.54 0.66 0.65 0.70 0.70 0.70 0.58 0.54 0.48 0.50 0.40 0.43 0.42 0.40 0.40 0.39 0.44 0.42 0.39 0.39 0.39 0.38 0.36 0.39 0.39 0.33 0.31 0.32 0.39 0.38 0.38 0.38 0.37 0.36 0.35 0.28 0.26 0.32 0.36 0.27 0.20 0.29 0.30 0.31 0.34 0.35 0.36 0.36 0.35 0.34 0.34 0.33 0.34 0.34 0.35 0.35 0.36
1.47 1.46 1.46 1.45 1.43 1.41 1.17 1.02 1.25 1.22 1.03 1.06 1.21 1.21 1.17 1.15 1.10 0.93 0.63 0.47 0.38 0.54 0.49 0.59 0.57 0.54 0.60 0.55 0.55 0.58 0.38 0.43 0.63 0.65 0.63 0.69 0.57 0.66 0.46 0.43 0.45 0.46 0.46 0.45 0.38 0.33 0.41 0.41 0.41 0.42 0.40 0.38 0.37 0.36 0.40 0.40 0.35 0.31 0.40 0.41 0.41 0.40 0.39 0.38 0.37 0.35 0.32 0.36 0.36 0.36 0.34 0.27 0.22 0.28 0.33 0.34 0.34 0.33 0.33 0.33 0.34 0.33 0.34 0.35 0.35 0.36 0.37 0.38
1.43 1.43 1.43 1.43 1.41 1.38 1.22 1.26 1.22 1.10 1.08 1.19 1.23 1.19 1.20 1.12 1.07 0.92 0.61 0.34 0.31 0.51 0.45 0.50 0.53 0.68 0.58 0.56 0.56 0.47 0.45 0.53 0.43 0.54 0.62 0.65 0.62 0.54 0.49 0.43 0.43 0.43 0.45 0.42 0.31 0.40 0.42 0.40 0.41 0.40 0.40 0.39 0.38 0.42 0.44 0.44 0.39 0.38 0.42 0.44 0.42 0.42 0.41 0.39 0.38 0.36 0.35 0.32 0.27 0.31 0.36 0.28 0.23 0.29 0.33 0.33 0.31 0.31 0.31 0.32 0.33 0.34 0.35 0.36 0.37 0.38 0.38 0.39
1.42 1.43 1.44 1.44 1.44 1.43 1.41 1.28 1.22 1.12 1.24 1.28 1.25 1.21 1.17 1.13 0.98 0.69 0.51 0.33 0.49 0.51 0.62 0.47 0.67 0.58 0.55 0.57 0.52 0.51 0.49 0.52 0.43 0.52 0.63 0.66 0.67 0.58 0.48 0.50 0.49 0.48 0.49 0.46 0.39 0.43 0.46 0.45 0.45 0.45 0.43 0.40 0.45 0.46 0.47 0.46 0.40 0.44 0.47 0.47 0.45 0.44 0.42 0.41 0.38 0.36 0.35 0.31 0.24 0.29 0.34 0.27 0.22 0.30 0.29 0.31 0.30 0.30 0.31 0.34 0.37 0.38 0.37 0.37 0.37 0.38 0.40 0.41
1.35 1.37 1.41 1.43 1.41 1.35 1.32 1.33 1.21 1.31 1.30 1.27 1.25 1.20 1.18 1.03 0.75 0.51 0.40 0.29 0.51 0.41 0.53 0.52 0.51 0.47 0.54 0.49 0.49 0.52 0.48 0.51 0.55 0.57 0.61 0.57 0.59 0.61 0.56 0.58 0.51 0.48 0.46 0.48 0.45 0.46 0.47 0.51 0.51 0.46 0.42 0.44 0.44 0.46 0.47 0.47 0.47 0.50 0.47 0.43 0.42 0.41 0.39 0.39 0.38 0.36 0.33 0.25 0.25 0.31 0.32 0.29 0.20 0.25 0.27 0.27 0.29 0.31 0.33 0.35 0.38 0.38 0.38 0.38 0.38 0.39 0.40 0.41
1.31 1.32 1.36 1.39 1.23 1.28 1.28 1.11 1.22 1.33 1.31 1.26 1.21 1.13 1.03 0.82 0.54 0.41 0.30 0.42 0.56 0.54 0.61 0.55 0.51 0.58 0.51 0.48 0.46 0.54 0.53 0.53 0.54 0.55 0.51 0.57 0.54 0.56 0.54 0.49 0.53 0.46 0.44 0.43 0.42 0.45 0.45 0.45 0.44 0.45 0.48 0.46 0.46 0.43 0.49 0.50 0.49 0.47 0.42 0.40 0.39 0.36 0.36 0.34 0.34 0.35 0.27 0.22 0.26 0.30 0.30 0.29 0.19 0.23 0.28 0.30 0.32 0.35 0.35 0.34 0.36 0.37 0.38 0.39 0.40 0.40 0.42 0.43
1.24 1.27 1.33 1.32 1.33 1.35 1.10 1.03 1.25 1.32 1.27 1.24 1.17 0.97 0.81 0.49 0.55 0.34 0.33 0.61 0.41 0.51 0.50 0.49 0.54 0.53 0.51 0.52 0.49 0.49 0.48 0.50 0.52 0.50 0.46 0.46 0.45 0.44 0.45 0.39 0.42 0.35 0.34 0.36 0.35 0.42 0.38 0.39 0.43 0.44 0.49 0.44 0.42 0.41 0.42 0.45 0.46 0.44 0.42 0.40 0.33 0.29 0.31 0.27 0.28 0.25 0.24 0.22 0.26 0.30 0.30 0.25 0.21 0.25 0.30 0.32 0.36 0.38 0.37 0.36 0.37 0.38 0.39 0.40 0.41 0.43 0.44 0.44
1.24 1.24 1.27 1.29 1.31 1.22 1.23 1.27 1.30 1.27 1.25 1.20 1.05 0.89 0.61 0.44 0.30 0.41 0.44 0.49 0.42 0.53 0.49 0.54 0.50 0.51 0.51 0.49 0.46 0.49 0.51 0.44 0.50 0.48 0.48 0.47 0.43 0.43 0.46 0.43 0.44 0.39 0.30 0.37 0.34 0.34 0.35 0.41 0.41 0.42 0.43 0.44 0.42 0.34 0.34 0.34 0.39 0.40 0.38 0.35 0.31 0.26 0.25 0.22 0.24 0.26 0.24 0.26 0.30 0.29 0.31 0.23 0.25 0.29 0.33 0.34 0.36 0.37 0.38 0.39 0.39 0.39 0.40 0.40 0.42 0.43 0.44 0.45
1.20 1.20 1.16 1.23 1.26 1.27 1.27 1.28 1.26 1.24 1.15 1.10 0.91 0.71 0.59 0.38 0.34 0.52 0.48 0.50 0.49 0.61 0.59 0.55 0.54 0.53 0.50 0.43 0.45 0.48 0.42 0.47 0.45 0.44 0.45 0.40 0.39 0.35 0.37 0.41 0.41 0.38 0.37 0.35 0.31 0.32 0.27 0.26 0.34 0.38 0.33 0.43 0.40 0.38 0.38 0.38 0.38 0.37 0.39 0.35 0.30 0.28 0.24 0.21 0.22 0.19 0.20 0.23 0.27 0.31 0.26 0.22 0.21 0.26 0.33 0.35 0.39 0.38 0.37 0.38 0.40 0.41 0.41 0.43 0.44 0.44 0.45 0.45
1.15 1.14 1.15 1.16 1.18 1.25 1.26 1.27 1.24 1.21 1.10 0.96 0.76 0.61 0.43 0.37 0.45 0.42 0.45 0.50 0.54 0.56 0.52 0.59 0.51 0.48 0.45 0.46 0.48 0.50 0.48 0.42 0.48 0.43 0.41 0.38 0.35 0.36 0.35 0.37 0.41 0.41 0.39 0.31 0.35 0.32 0.28 0.27 0.33 0.41 0.40 0.41 0.37 0.43 0.44 0.40 0.37 0.38 0.37 0.37 0.31 0.27 0.30 0.22 0.24 0.24 0.24 0.24 0.25 0.26 0.25 0.28 0.26 0.34 0.36 0.38 0.39 0.38 0.38 0.39 0.40 0.41 0.43 0.44 0.43 0.42 0.42 0.42
1.06 1.04 1.11 1.04 1.05 1.13 1.24 1.26 1.25 1.20 1.04 0.84 0.65 0.50 0.40 0.44 0.42 0.52 0.50 0.60 0.58 0.51 0.52 0.54 0.51 0.44 0.43 0.44 0.48 0.45 0.52 0.42 0.44 0.42 0.40 0.39 0.39 0.36 0.40 0.40 0.39 0.39 0.35 0.30 0.32 0.27 0.30 0.25 0.32 0.38 0.42 0.41 0.41 0.42 0.41 0.42 0.26 0.33 0.34 0.28 0.29 0.36 0.31 0.27 0.28 0.31 0.31 0.28 0.24 0.29 0.27 0.27 0.31 0.31 0.33 0.34 0.34 0.34 0.36 0.36 0.36 0.36 0.38 0.39 0.40 0.41 0.43 0.44
0.94 1.00 0.91 0.98 1.01 1.12 1.17 1.23 1.22 1.12 0.99 0.78 0.59 0.45 0.52 0.56 0.60 0.58 0.62 0.56 0.57 0.57 0.52 0.41 0.43 0.41 0.39 0.38 0.41 0.43 0.46 0.48 0.44 0.41 0.36 0.42 0.37 0.40 0.39 0.40 0.45 0.42 0.41 0.39 0.34 0.38 0.28 0.26 0.34 0.34 0.33 0.42 0.44 0.44 0.43 0.42 0.41 0.36 0.28 0.29 0.36 0.39 0.36 0.30 0.24 0.27 0.26 0.23 0.23 0.26 0.22 0.22 0.23 0.19 0.30 0.31 0.29 0.30 0.31 0.32 0.36 0.38 0.39 0.39 0.40 0.42 0.43 0.44
0.90 0.90 0.89 0.90 0.97 1.06 1.14 1.18 1.13 1.03 0.88 0.70 0.53 0.50 0.62 0.52 0.63 0.61 0.65 0.61 0.58 0.57 0.49 0.44 0.45 0.47 0.40 0.38 0.38 0.42 0.46 0.40 0.40 0.41 0.36 0.41 0.32 0.44 0.36 0.36 0.41 0.41 0.43 0.46 0.38 0.39 0.40 0.29 0.31 0.36 0.38 0.41 0.44 0.40 0.37 0.40 0.42 0.34 0.32 0.40 0.28 0.24 0.23 0.28 0.27 0.21 0.20 0.20 0.21 0.24 0.24 0.23 0.23 0.23 0.27 0.29 0.29 0.28 0.31 0.33 0.35 0.36 0.38 0.39 0.41 0.43 0.44 0.46
0.84 0.83 0.74 0.87 1.01 1.05 1.08 1.14 1.05 0.88 0.71 0.56 0.49 0.46 0.55 0.57 0.63 0.61 0.62 0.61 0.60 0.54 0.47 0.47 0.42 0.47 0.43 0.39 0.39 0.42 0.42 0.35 0.41 0.38 0.34 0.38 0.32 0.43 0.39 0.44 0.40 0.45 0.45 0.44 0.38 0.39 0.42 0.31 0.31 0.37 0.35 0.38 0.40 0.36 0.26 0.30 0.38 0.40 0.40 0.36 0.40 0.34 0.29 0.27 0.29 0.29 0.27 0.21 0.22 0.21 0.24 0.21 0.25 0.23 0.24 0.25 0.26 0.30 0.32 0.34 0.36 0.39 0.41 0.42 0.44 0.45 0.46 0.47
0.70 0.64 0.60 0.91 0.98 1.02 1.08 1.07 0.90 0.80 0.65 0.48 0.49 0.51 0.60 0.55 0.60 0.62 0.61 0.58 0.54 0.50 0.47 0.44 0.47 0.41 0.43 0.41 0.43 0.38 0.45 0.42 0.40 0.39 0.37 0.39 0.34 0.42 0.37 0.42 0.38 0.42 0.45 0.48 0.44 0.47 0.38 0.44 0.28 0.35 0.40 0.38 0.29 0.33 0.29 0.31 0.28 0.31 0.32 0.30 0.33 0.33 0.38 0.36 0.35 0.29 0.24 0.21 0.20 0.19 0.18 0.20 0.26 0.31 0.28 0.29 0.32 0.35 0.36 0.37 0.40 0.41 0.43 0.45 0.46 0.47 0.47 0.47
0.68 0.58 0.58 0.87 0.97 0.96 0.99 0.87 0.69 0.59 0.54 0.57 0.58 0.53 0.55 0.49 0.51 0.54 0.58 0.60 0.55 0.62 0.49 0.47 0.45 0.40 0.41 0.39 0.39 0.44 0.40 0.40 0.39 0.36 0.37 0.37 0.36 0.31 0.46 0.44 0.47 0.44 0.49 0.47 0.43 0.43 0.37 0.37 0.27 0.30 0.28 0.26 0.26 0.34 0.35 0.35 0.34 0.32 0.30 0.29 0.31 0.29 0.27 0.24 0.20 0.28 0.24 0.22 0.18 0.18 0.17 0.23 0.34 0.37 0.36 0.36 0.39 0.40 0.42 0.42 0.42 0.44 0.45 0.46 0.47 0.48 0.48 0.48
0.47 0.34 0.42 0.79 0.89 0.84 0.69 0.52 0.52 0.57 0.51 0.43 0.41 0.46 0.45 0.54 0.47 0.49 0.53 0.58 0.55 0.50 0.58 0.49 0.49 0.45 0.43 0.40 0.39 0.41 0.38 0.35 0.36 0.36 0.39 0.34 0.40 0.39 0.46 0.54 0.52 0.52 0.45 0.38 0.38 0.44 0.41 0.38 0.32 0.26 0.27 0.26 0.28 0.34 0.40 0.40 0.39 0.36 0.34 0.30 0.32 0.30 0.28 0.23 0.18 0.20 0.25 0.28 0.32 0.30 0.26 0.28 0.39 0.43 0.42 0.42 0.43 0.43 0.44 0.46 0.45 0.46 0.47 0.47 0.47 0.47 0.46 0.46
0.36 0.30 0.63 0.70 0.80 0.69 0.51 0.37 0.41 0.40 0.38 0.42 0.50 0.48 0.51 0.48 0.44 0.47 0.44 0.49 0.43 0.49 0.44 0.42 0.40 0.38 0.41 0.39 0.38 0.36 0.37 0.33 0.34 0.31 0.35 0.35 0.36 0.39 0.45 0.47 0.47 0.44 0.43 0.39 0.41 0.41 0.41 0.29 0.25 0.26 0.30 0.33 0.35 0.36 0.38 0.39 0.38 0.35 0.35 0.37 0.34 0.28 0.32 0.31 0.30 0.32 0.29 0.30 0.28 0.27 0.24 0.29 0.41 0.46 0.45 0.46 0.47 0.48 0.48 0.48 0.46 0.46 0.46 0.46 0.45 0.44 0.42 0.42
0.34 0.35 0.46 0.66 0.75 0.67 0.41 0.25 0.25 0.30 0.32 0.38 0.38 0.37 0.45 0.41 0.38 0.36 0.36 0.40 0.37 0.37 0.35 0.36 0.38 0.40 0.35 0.41 0.37 0.31 0.36 0.27 0.35 0.33 0.32 0.37 0.34 0.46 0.45 0.45 0.47 0.40 0.38 0.39 0.33 0.43 0.29 0.33 0.32 0.26 0.26 0.27 0.30 0.35 0.36 0.43 0.42 0.36 0.35 0.38 0.39 0.36 0.37 0.37 0.37 0.37 0.28 0.28 0.27 0.24 0.19 0.24 0.35 0.44 0.44 0.44 0.43 0.43 0.44 0.45 0.45 0.43 0.43 0.42 0.42 0.41 0.40 0.40
0.29 0.33 0.38 0.48 0.62 0.58 0.33 0.33 0.28 0.26 0.28 0.27 0.29 0.28 0.30 0.35 0.38 0.38 0.38 0.36 0.42 0.40 0.38 0.35 0.37 0.39 0.35 0.39 0.35 0.37 0.37 0.33 0.29 0.36 0.34 0.35 0.34 0.42 0.42 0.41 0.43 0.40 0.44 0.47 0.46 0.46 0.35 0.34 0.31 0.23 0.19 0.16 0.16 0.17 0.21 0.25 0.31 0.36 0.38 0.37 0.38 0.35 0.33 0.30 0.24 0.27 0.21 0.25 0.25 0.21 0.20 0.27 0.39 0.43 0.41 0.42 0.41 0.40 0.42 0.43 0.44 0.43 0.41 0.40 0.39 0.38 0.37 0.35
0.17 0.12 0.26 0.35 0.42 0.46 0.40 0.44 0.38 0.29 0.27 0.26 0.26 0.26 0.28 0.26 0.31 0.39 0.37 0.35 0.38 0.38 0.36 0.34 0.38 0.36 0.32 0.30 0.27 0.27 0.28 0.34 0.29 0.28 0.29 0.28 0.34 0.38 0.40 0.42 0.41 0.39 0.41 0.42 0.43 0.42 0.33 0.34 0.30 0.27 0.24 0.21 0.24 0.27 0.34 0.34 0.32 0.27 0.30 0.32 0.31 0.34 0.34 0.32 0.30 0.25 0.21 0.24 0.25 0.28 0.28 0.28 0.31 0.34 0.35 0.39 0.38 0.39 0.39 0.40 0.40 0.40 0.40 0.39 0.38 0.36 0.34 0.32
0.18 0.09 0.17 0.19 0.30 0.34 0.30 0.34 0.31 0.31 0.24 0.27 0.21 0.24 0.20 0.22 0.25 0.30 0.36 0.25 0.32 0.30 0.30 0.28 0.27 0.23 0.25 0.24 0.23 0.23 0.26 0.26 0.32 0.30 0.27 0.26 0.31 0.34 0.37 0.34 0.33 0.33 0.34 0.32 0.35 0.31 0.26 0.21 0.22 0.22 0.22 0.23 0.24 0.24 0.26 0.28 0.25 0.27 0.26 0.26 0.28 0.27 0.27 0.26 0.24 0.21 0.26 0.24 0.20 0.25 0.26 0.25 0.26 0.27 0.28 0.31 0.32 0.31 0.30 0.31 0.31 0.31 0.31 0.31 0.31 0.31 0.31 0.29
0.09 0.12 0.17 0.26 0.19 0.15 0.21 0.23 0.28 0.26 0.29 0.27 0.22 0.25 0.19 0.18 0.21 0.18 0.26 0.30 0.31 0.35 0.25 0.29 0.29 0.27 0.25 0.23 0.24 0.20 0.21 0.20 0.23 0.19 0.23 0.24 0.23 0.27 0.26 0.31 0.28 0.31 0.34 0.34 0.36 0.30 0.25 0.19 0.21 0.22 0.22 0.25 0.25 0.24 0.25 0.25 0.24 0.23 0.23 0.22 0.20 0.21 0.20 0.18 0.18 0.21 0.22 0.19 0.16 0.18 0.19 0.18 0.19 0.20 0.21 0.23 0.25 0.26 0.27 0.27 0.28 0.29 0.30 0.29 0.29 0.28 0.27 0.24
0.14 0.16 0.17 0.26 0.15 0.16 0.21 0.25 0.28 0.27 0.26 0.28 0.24 0.21 0.16 0.18 0.18 0.23 0.24 0.24 0.27 0.27 0.29 0.18 0.20 0.26 0.27 0.29 0.28 0.21 0.21 0.16 0.16 0.21 0.22 0.23 0.24 0.25 0.24 0.27 0.30 0.31 0.29 0.27 0.27 0.27 0.21 0.16 0.16 0.17 0.16 0.16 0.17 0.17 0.19 0.20 0.20 0.20 0.20 0.19 0.19 0.18 0.16 0.17 0.18 0.19 0.19 0.18 0.19 0.18 0.18 0.17 0.19 0.21 0.24 0.25 0.27 0.26 0.26 0.26 0.28 0.27 0.26 0.28 0.28 0.26 0.25 0.23
0.12 0.11 0.12 0.21 0.19 0.18 0.19 0.22 0.24 0.24 0.22 0.29 0.22 0.21 0.20 0.19 0.17 0.24 0.28 0.25 0.20 0.22 0.29 0.21 0.22 0.25 0.25 0.25 0.26 0.22 0.24 0.24 0.23 0.18 0.23 0.21 0.18 0.18 0.16 0.17 0.17 0.22 0.23 0.21 0.22 0.26 0.21 0.15 0.20 0.19 0.16 0.16 0.17 0.17 0.18 0.19 0.18 0.16 0.17 0.17 0.17 0.16 0.16 0.18 0.17 0.17 0.18 0.17 0.18 0.18 0.18 0.18 0.21 0.23 0.21 0.22 0.23 0.25 0.26 0.23 0.24 0.25 0.25 0.26 0.25 0.25 0.25 0.23
0.22 0.24 0.22 0.15 0.12 0.15 0.17 0.18 0.18 0.19 0.18 0.21 0.20 0.21 0.23 0.22 0.20 0.25 0.24 0.30 0.23 0.20 0.22 0.19 0.20 0.21 0.23 0.22 0.22 0.21 0.24 0.23 0.22 0.20 0.21 0.20 0.15 0.22 0.17 0.20 0.23 0.19 0.22 0.21 0.23 0.24 0.24 0.18 0.22 0.20 0.16 0.15 0.17 0.17 0.19 0.20 0.19 0.17 0.16 0.15 0.14 0.14 0.14 0.15 0.15 0.17 0.17 0.15 0.15 0.14 0.13 0.12 0.18 0.21 0.21 0.21 0.21 0.20 0.20 0.21 0.21 0.23 0.23 0.24 0.24 0.23 0.22 0.21
0.22 0.26 0.25 0.17 0.10 0.17 0.13 0.16 0.16 0.16 0.12 0.16 0.18 0.19 0.19 0.19 0.22 0.24 0.20 0.27 0.26 0.26 0.24 0.23 0.23 0.21 0.20 0.18 0.17 0.20 0.24 0.26 0.27 0.29 0.30 0.31 0.32 0.31 0.31 0.30 0.30 0.26 0.24 0.24 0.28 0.24 0.24 0.22 0.19 0.18 0.15 0.14 0.16 0.18 0.18 0.18 0.17 0.14 0.12 0.11 0.13 0.15 0.15 0.16 0.18 0.17 0.16 0.14 0.10 0.08 0.08 0.15 0.18 0.19 0.18 0.19 0.18 0.17 0.18 0.18 0.18 0.18 0.19 0.20 0.22 0.23 0.23 0.21
Wind_Speed
10 10 10 10 10 10 10 10 10 10 10 10 10 10 11 11 11 11 11 11 11 11 11 11 12 12 12 12 12 12 13 13 13 13 13 12 11 11 11 12 11 11 12 11 11 12 12 12 12 12 12 12 13 13 13 13 13 14 14 15 16 16 16 15 16 16 16 17 17 16 15 17 18 16 16 16 17 18 18 18 18 18 18 18 18 17 16 16
11 11 11 11 12 12 12 12 12 12 12 12 12 12 12 12 12 13 13 13 13 13 13 13 13 14 14 14 14 14 15 15 15 15 14 12 12 12 12 12 12 12 12 12 13 13 13 13 13 13 13 13 14 14 14 14 14 15 16 17 17 17 16 16 17 17 17 19 19 18 16 17 18 17 16 17 18 17 19 19 18 18 19 19 18 18 17 17
13 13 13 13 13 13 13 13 13 14 14 14 14 14 14 14 14 14 14 14 15 15 15 15 15 15 15 15 15 15 16 16 17 16 14 12 12 13 13 12 12 12 13 14 14 14 14 14 14 14 14 15 15 15 16 15 16 16 16 18 18 18 17 17 18 18 19 20 20 19 17 17 18 18 16 16 18 18 19 20 18 18 19 19 19 19 18 17
15 15 15 15 15 15 15 15 15 15 15 15 15 16 16 16 16 16 16 16 16 16 17 17 17 17 17 17 17 16 17 18 17 15 13 13 14 14 14 14 13 13 14 15 15 15 15 15 15 15 16 16 16 16 17 16 16 16 17 19 18 17 18 18 19 20 20 19 20 19 19 19 19 17 17 17 18 18 18 20 20 21 21 21 20 20 18 18
17 17 16 16 16 16 16 17 17 16 17 17 17 17 17 17 17 18 18 18 18 18 18 18 18 18 18 18 17 17 17 17 15 14 14 15 16 16 16 15 15 15 15 15 15 16 16 16 16 16 17 17 16 17 18 17 17 17 18 21 19 17 19 19 19 19 19 19 19 19 19 20 18 18 18 17 18 19 20 20 21 23 24 23 23 21 20 20
18 18 18 18 18 18 18 18 18 18 18 18 18 18 18 19 19 19 19 19 19 19 19 19 19 19 19 19 18 17 17 16 16 16 17 17 18 17 16 16 16 15 15 16 15 16 16 16 17 17 17 17 17 18 18 17 18 20 19 20 20 19 20 20 19 19 19 19 20 20 20 20 19 20 19 18 20 23 24 24 24 25 25 24 23 22 21 21
20 20 20 20 19 19 19 20 19 19 19 20 20 20 20 20 20 20 20 21 21 21 21 21 20 20 20 19 18 18 17 19 19 18 19 19 18 17 16 16 16 16 16 16 16 17 17 17 18 17 18 18 19 19 19 18 18 21 21 20 20 20 21 22 20 21 21 22 22 22 22 22 21 21 20 19 21 25 26 26 26 26 25 24 23 22 22 22
20 20 20 20 21 21 21 21 21 21 21 21 21 21 21 21 22 22 22 22 22 22 22 22 21 21 20 19 18 17 17 20 20 19 19 18 17 16 16 16 17 18 17 18 18 18 18 18 19 18 19 20 19 19 19 20 20 21 22 21 20 21 22 23 22 23 24 24 24 24 24 25 25 22 22 23 24 25 26 26 26 25 24 23 23 23 23 23
20 21 21 21 21 21 21 21 21 22 22 22 22 22 23 23 23 23 23 23 23 23 22 22 22 21 20 19 18 17 18 19 19 18 18 17 17 17 17 18 19 19 19 19 19 19 19 20 20 20 21 20 19 20 19 20 21 20 22 22 21 23 24 24 24 24 25 25 24 24 26 27 24 22 24 25 25 24 24 24 23 23 24 24 24 24 24 24
21 21 21 21 21 21 21 21 22 22 22 22 23 23 23 23 24 24 24 24 24 23 23 22 21 21 20 19 18 17 18 19 18 18 18 18 19 19 19 20 20 20 20 20 20 20 21 21 20 20 21 20 20 20 19 20 21 20 22 23 24 25 25 24 25 25 25 25 24 25 28 27 22 21 23 22 20 21 22 23 24 23 24 24 24 24 24 24
21 22 21 21 21 21 21 21 22 22 22 22 23 23 23 23 24 24 24 24 24 24 23 23 22 21 20 19 19 18 19 20 20 20 20 20 20 20 21 21 21 21 21 21 22 22 22 21 20 20 21 20 19 19 20 21 22 22 23 25 25 26 26 25 26 26 25 25 24 25 28 27 22 21 25 24 23 23 23 25 26 25 26 25 25 24 24 24
22 22 22 21 21 21 21 21 21 22 22 22 23 23 23 24 24 24 25 25 25 24 24 23 22 22 21 21 21 21 22 22 22 22 22 22 22 22 22 22 22 22 22 22 23 23 22 21 20 21 21 20 20 20 21 21 22 23 23 26 27 26 27 26 25 24 22 23 22 24 27 27 24 23 26 28 27 26 26 27 27 27 26 26 26 25 25 26
23 22 22 22 22 21 21 22 22 22 22 22 23 23 23 24 24 24 25 25 25 24 24 23 23 23 23 22 21 22 22 22 22 22 23 23 22 23 23 23 23 23 23 23 23 23 23 22 22 22 21 21 21 20 21 21 22 24 24 25 27 27 26 22 21 21 21 22 21 23 26 26 25 25 27 26 26 27 27 27 27 27 27 27 28 28 28 28
23 23 22 22 22 22 22 22 23 23 23 23 24 24 24 24 24 24 24 25 25 24 24 24 23 23 23 22 21 22 23 22 23 23 23 24 23 23 23 23 23 23 24 23 23 23 23 22 22 22 22 23 22 22 23 23 23 25 25 25 25 26 24 20 19 20 22 23 22 24 28 28 27 27 26 24 25 27 27 28 28 28 29 29 30 30 31 30
24 23 23 23 23 23 23 23 24 24 24 25 25 25 26 25 25 24 24 24 24 24 23 23 24 23 24 24 22 22 22 22 23 23 23 23 23 23 23 23 22 23 23 23 23 23 23 22 23 23 23 23 23 24 25 25 24 24 25 26 24 25 26 24 21 21 24 24 23 26 28 29 28 27 26 24 25 27 28 30 31 31 31 31 31 30 30 30
24 24 24 24 24 24 24 25 25 25 25 26 26 26 26 25 25 25 24 24 24 24 24 24 24 24 24 23 22 22 23 23 23 23 23 23 23 23 22 22 21 22 22 22 22 22 22 23 23 24 23 23 23 24 25 26 26 24 25 27 26 27 28 27 24 22 23 24 25 27 29 30 29 28 28 26 27 29 30 32 32 33 32 31 30 29 29 29
25 25 25 25 25 25 25 25 25 26 26 26 27 27 26 25 25 25 24 24 24 23 24 24 24 25 26 24 23 23 23 23 23 23 23 23 23 22 21 21 21 21 21 21 22 22 23 23 24 24 24 23 23 24 25 26 26 25 25 27 28 28 28 28 26 22 21 24 27 28 30 32 31 31 31 30 31 31 31 33 33 32 32 31 30 29 29 28
26 26 26 25 25 25 26 26 26 26 27 27 27 27 26 26 25 25 24 24 24 24 25 25 24 25 26 24 24 23 23 23 23 23 22 22 22 22 22 22 22 22 21 22 23 23 24 24 25 25 24 24 23 24 26 27 28 28 27 28 28 28 28 29 28 25 24 27 29 30 32 33 33 31 31 31 31 32 32 31 31 30 30 30 29 27 27 25
26 26 26 26 26 26 26 26 26 27 27 27 26 26 26 26 26 26 25 25 25 25 25 25 25 26 26 25 25 25 24 24 24 24 24 23 23 23 23 23 23 23 23 23 24 24 24 25 25 26 25 25 25 26 28 29 29 29 28 29 29 29 30 30 30 28 27 30 31 32 33 33 33 32 30 31 31 31 31 30 29 28 28 27 26 24 22 21
27 27 27 27 26 26 26 27 27 27 27 26 26 26 26 26 26 26 26 27 27 27 27 27 28 29 29 28 27 27 27 27 26 25 24 24 24 23 23 23 24 24 24 25 25 25 25 27 27 26 27 27 27 27 29 29 28 28 28 29 30 31 31 31 31 29 26 29 31 31 33 34 33 32 31 32 31 31 30 28 26 26 26 25 23 21 19 19
28 28 28 27 27 27 27 27 27 27 27 26 26 26 25 25 26 27 27 28 29 29 30 30 30 31 31 29 29 29 28 28 26 25 24 24 24 24 25 24 25 26 25 24 24 25 26 29 28 28 28 27 26 26 28 29 28 29 29 30 31 31 32 31 31 30 26 27 31 31 33 34 34 34 33 32 31 29 26 24 24 26 26 23 20 19 19 20
29 29 29 29 28 28 28 28 28 27 27 26 25 25 25 26 26 27 28 29 29 29 31 31 31 32 32 30 30 30 29 28 27 25 25 24 24 25 25 25 26 26 25 24 25 26 28 30 30 29 27 25 25 25 26 28 29 29 29 30 31 30 32 31 29 27 25 27 31 32 34 35 35 35 33 30 27 24 24 25 27 27 25 22 20 20 20 19
30 30 30 29 29 29 29 29 28 28 27 26 25 25 26 26 26 27 27 29 29 29 29 31 31 32 32 31 31 30 30 29 27 26 25 25 25 26 26 27 27 27 26 27 27 28 29 29 29 29 26 26 27 26 27 29 29 29 29 30 31 30 30 30 28 26 26 29 31 33 35 34 33 30 26 25 23 22 26 28 26 23 20 19 19 18 17 16
31 30 30 30 30 29 29 29 28 27 26 26 25 26 26 26 26 27 27 29 30 29 28 29 30 31 31 30 30 29 29 28 27 26 26 26 26 25 27 27 27 27 28 28 29 31 31 28 27 27 26 28 29 28 27 29 29 28 28 29 31 30 29 31 30 28 30 30 29 32 34 30 25 22 21 22 22 24 28 26 21 17 15 15 14 13 13 13
31 31 30 30 29 29 29 29 28 27 27 26 26 26 26 26 26 27 28 29 30 29 27 27 27 27 27 26 27 27 27 26 26 25 25 26 26 25 26 26 27 28 28 27 28 31 31 27 25 25 25 26 27 27 26 26 28 29 27 28 30 30 31 32 30 29 29 27 25 28 30 26 22 23 25 25 25 27 26 20 16 14 12 11 11 11 10 9
31 30 30 30 29 29 29 28 27 27 27 27 27 26 26 27 27 27 28 28 29 28 25 24 23 22 22 22 22 22 22 22 23 23 23 24 24 24 24 24 24 26 25 25 26 28 27 24 24 25 24 24 25 27 25 25 29 30 27 26 28 30 30 30 29 28 27 27 26 26 26 28 27 26 26 26 26 26 20 15 13 11 9 9 9 9 9 8
30 30 30 30 30 29 28 27 27 27 27 27 27 27 27 27 27 27 27 27 27 24 22 21 20 19 19 18 18 18 18 18 18 19 19 20 21 21 23 23 22 23 23 24 26 26 24 23 23 23 24 24 25 27 25 24 27 28 26 25 26 27 28 28 28 28 28 29 29 25 24 29 29 26 25 25 24 22 16 12 10 8 8 10 9 9 10 10
30 30 30 30 30 29 28 28 27 27 27 27 27 27 27 27 27 26 25 25 24 22 20 20 19 19 19 18 19 18 19 19 19 19 19 20 21 21 23 24 23 23 23 25 27 25 23 24 24 23 24 25 26 25 23 23 26 26 25 25 25 25 26 26 27 28 28 29 28 24 22 26 28 25 24 24 20 17 13 10 9 9 11 13 13 12 12 12
29 30 30 30 30 29 29 28 28 28 28 28 27 28 27 27 27 25 23 24 24 23 22 21 21 21 20 20 21 21 21 21 20 20 21 22 22 22 23 24 23 24 23 25 27 25 23 24 24 24 25 25 24 24 24 24 25 25 24 24 24 25 25 26 27 27 27 27 27 24 22 25 27 23 21 20 17 15 12 10 11 13 14 16 15 14 14 14
28 29 29 29 29 29 29 29 30 29 29 29 28 28 27 27 27 25 25 26 25 23 23 23 22 22 22 21 21 21 22 21 20 21 21 22 22 22 23 23 23 24 24 26 27 26 24 24 25 25 26 25 23 23 24 24 24 24 24 25 26 26 26 26 26 25 25 27 27 25 23 24 25 22 20 18 15 15 16 16 16 17 17 17 17 16 16 16
29 29 29 29 29 30 29 29 30 29 28 28 27 26 26 26 26 25 26 26 25 24 24 24 23 22 22 22 21 21 21 21 20 20 21 21 22 22 23 23 24 24 25 26 27 26 25 25 26 26 25 24 23 23 24 24 25 25 26 27 27 26 25 24 24 23 24 26 24 22 22 25 27 24 20 20 19 20 22 22 20 19 19 19 19 20 19 18
30 30 30 30 30 30 29 28 28 27 27 26 26 26 25 26 27 27 27 25 23 23 23 22 21 21 20 21 21 21 21 21 21 22 23 23 24 24 25 25 24 25 26 26 26 27 28 28 27 27 27 26 26 26 26 26 26 27 27 27 26 25 24 25 24 23 25 26 24 23 23 26 31 29 27 28 26 23 23 23 23 22 21 20 21 23 22 22
31 30 30 30 29 29 28 27 26 26 26 25 25 25 24 26 28 28 27 25 23 22 21 21 21 22 23 24 24 23 24 24 24 25 25 25 26 27 27 26 26 27 28 27 28 29 30 29 28 28 28 27 27 27 27 27 27 27 27 26 25 24 25 26 25 25 28 27 25 26 26 29 32 31 30 29 25 22 23 24 25 23 21 21 23 25 26 27
29 29 29 29 29 28 28 27 27 26 26 25 24 23 25 28 28 26 26 26 24 22 22 23 23 25 26 26 26 26 26 27 26 26 27 27 28 28 28 27 27 28 29 29 30 30 30 31 29 28 27 27 28 28 27 26 27 28 28 27 28 28 27 27 27 28 30 28 26 26 27 29 30 27 26 25 23 25 26 26 25 24 24 25 26 27 28 29
28 28 28 28 29 29 28 28 28 28 27 26 25 25 28 29 27 26 26 26 26 25 25 24 25 26 28 28 28 28 28 28 26 26 27 28 28 29 29 28 28 28 29 29 30 29 31 33 31 29 29 28 29 29 27 27 28 29 28 29 30 30 29 30 30 30 30 30 29 29 31 33 33 33 33 30 28 28 29 28 28 28 28 28 27 27 27 26
29 29 29 29 29 29 29 30 29 29 28 26 26 29 31 30 27 27 27 26 26 26 26 27 27 29 30 29 29 28 28 28 27 27 28 29 30 30 30 29 28 29 29 30 30 30 32 34 31 30 31 29 29 29 28 29 29 28 29 30 30 30 30 31 31 29 29 31 32 32 34 37 37 37 34 29 27 28 28 28 28 28 28 27 27 27 28 28
30 30 30 30 30 30 30 30 29 28 27 26 28 31 31 30 29 29 28 27 27 27 28 29 30 30 30 30 29 29 28 29 28 28 29 29 30 30 30 30 29 30 30 30 31 31 32 35 34 32 33 31 30 30 30 31 31 30 30 31 30 30 30 30 29 28 28 31 32 33 37 38 36 34 30 26 26 27 28 29 29 28 28 28 29 30 31 30
33 33 34 34 33 32 31 31 30 29 28 28 32 34 32 31 31 30 29 29 29 29 30 31 31 31 31 32 31 30 30 30 29 29 30 30 31 30 30 30 29 30 30 30 30 31 31 34 35 34 34 32 31 32 32 32 32 31 31 32 30 30 30 29 28 28 30 32 32 33 37 38 37 37 34 30 30 30 31 31 31 31 30 30 31 32 31 31
34 34 35 35 35 34 33 33 32 32 31 33 35 35 33 33 32 31 32 31 30 31 32 33 33 32 32 32 32 31 31 31 30 31 31 31 32 30 29 30 29 30 30 30 31 31 30 32 33 32 33 32 31 32 33 32 31 31 32 32 32 31 32 30 29 29 31 33 34 34 35 36 37 38 37 34 34 33 32 31 31 31 31 32 32 33 33 33
35 35 35 35 35 36 35 35 34 35 35 36 37 36 34 35 34 34 34 33 33 33 34 34 34 34 34 34 33 33 33 33 33 33 33 33 34 32 31 31 31 31 31 30 31 31 31 31 33 33 33 34 34 33 33 32 31 31 32 33 33 33 33 33 33 34 34 35 35 35 36 36 35 34 33 34 34 33 32 32 33 34 34 34 34 34 35 34
35 35 36 35 35 36 36 36 38 38 39 39 39 38 36 35 35 35 34 34 34 34 34 34 34 34 34 34 34 33 32 33 34 34 34 33 34 33 31 31 31 30 31 31 31 32 32 32 34 35 35 37 37 35 33 34 33 33 34 34 35 35 34 34 35 36 37 37 36 36 37 35 33 32 33 33 33 34 34 35 36 36 36 36 36 36 36 36
35 35 35 34 35 36 35 37 38 38 39 39 38 37 36 35 35 35 35 35 35 35 34 34 34 34 34 35 35 33 33 34 34 34 34 34 34 33 32 31 32 32 32 33 33 33 33 34 37 39 39 40 40 37 35 36 35 35 35 35 35 35 35 36 36 35 36 36 35 35 36 34 33 33 33 33 33 34 36 36 36 36 37 36 37 37 38 38
35 34 34 34 35 35 35 36 37 37 38 37 36 36 36 35 35 35 35 35 35 35 35 35 35 35 35 35 35 34 34 35 35 36 35 35 34 34 32 32 33 33 33 35 35 34 34 35 37 39 39 40 39 36 35 36 35 36 36 35 35 35 36 36 37 35 35 35 35 35 35 34 33 33 32 31 31 33 34 34 34 35 36 36 37 38 39 40
34 34 33 33 34 35 35 36 36 36 37 36 36 37 36 35 35 35 35 35 35 34 34 34 34 34 34 33 34 34 34 34 35 35 34 34 33 32 32 32 32 33 33 33 33 33 33 34 34 34 34 34 35 33 32 32 32 32 33 32 33 35 36 36 36 36 35 36 38 38 37 36 34 33 33 32 31 32 32 33 34 35 36 38 39 40 41 42
33 33 34 34 34 36 36 36 35 36 36 36 37 37 37 36 35 35 35 35 35 34 34 34 34 33 34 33 33 34 34 33 34 34 34 34 34 33 33 33 32 32 32 32 32 33 33 33 33 33 33 32 33 33 31 31 32 33 33 33 34 34 35 36 36 37 37 37 39 39 38 37 35 35 36 34 32 33 33 34 36 37 38 40 41 42 43 43
33 33 34 33 34 36 36 35 34 35 35 35 35 35 36 36 34 33 34 35 35 34 35 35 34 33 35 35 35 36 36 35 35 35 36 36 35 34 34 34 33 33 34 34 34 34 35 36 37 37 37 37 38 38 37 37 38 39 39 39 39 39 38 38 38 39 39 39 39 39 40 41 39 40 41 37 34 35 37 38 39 40 40 41 42 43 44 45
33 33 33 33 33 35 35 34 34 34 33 33 33 33 35 36 35 33 33 33 34 33 34 34 34 34 35 35 35 36 36 36 35 36 38 38 36 35 35 35 35 35 35 35 35 35 36 39 40 41 42 42 43 44 43 42 43 43 44 44 44 44 43 43 44 43 42 41 40 42 44 45 44 46 47 43 40 41 41 42 42 43 43 44 44 44 44 45
32 32 32 32 33 33 33 33 33 33 33 33 33 33 35 35 35 33 32 32 32 32 33 33 33 34 35 35 34 35 35 35 35 36 36 36 35 34 34 34 34 35 35 35 35 35 36 40 41 41 42 43 44 45 44 43 43 43 45 46 46 46 47 47 48 47 45 44 45 47 49 50 49 50 49 45 42 42 42 42 43 43 44 44 44 44 43 44
32 32 32 32 32 32 32 31 31 32 33 33 33 33 34 35 35 33 31 31 32 32 32 33 33 32 33 34 33 34 34 34 35 34 33 33 34 34 35 35 34 34 34 35 35 35 37 39 39 40 41 42 43 43 42 42 42 44 45 45 45 47 48 48 48 48 47 48 49 50 52 53 51 48 44 42 41 42 42 42 43 43 43 43 43 43 43 43
32 32 32 31 31 31 31 31 31 32 33 33 34 34 34 35 36 34 31 33 34 34 33 35 34 32 32 33 33 34 35 34 35 36 34 34 35 35 36 37 36 35 35 35 36 36 37 38 37 37 40 41 41 42 42 41 42 44 45 45 47 48 49 48 48 48 48 49 50 51 52 51 47 42 40 40 41 41 41 41 42 42 42 42 42 43 43 43
32 32 32 32 32 31 32 32 31 32 33 34 35 34 34 35 36 34 33 33 34 34 34 34 34 33 33 34 35 37 36 34 35 36 34 35 36 36 36 36 35 35 35 35 35 35 35 36 36 36 39 40 41 42 42 41 43 45 46 48 49 49 48 48 47 46 47 48 49 49 49 47 43 40 40 40 39 40 41 41 41 41 41 42 43 43 43 44
33 33 32 32 32 32 32 32 32 33 34 33 33 33 33 34 33 33 34 34 32 32 32 32 33 33 34 36 36 35 34 33 33 34 34 35 36 36 36 36 35 35 35 34 35 35 35 36 38 38 38 40 42 42 41 39 41 45 47 47 48 48 48 48 47 47 48 48 47 46 45 42 40 39 40 40 40 41 41 41 41 41 42 43 43 44 44 45
Wind_Direction
263 264 266 268 269 269 270 271 272 274 274 274 275 274 275 276 278 279 280 282 283 285 287 288 290 291 293 294 294 294 294 292 289 288 284 283 285 282 279 279 275 269 270 274 276 277 281 281 280 282 281 283 287 287 287 289 288 287 289 290 290 291 291 291 287 289 297 297 295 294 292 291 294 296 297 297 291 288 289 286 282 282 282 281 284 290 289 288
262 264 266 267 268 269 270 271 272 273 274 274 274 275 275 276 277 277 279 280 281 282 284 286 287 289 290 291 292 292 292 290 287 285 280 280 284 282 280 279 274 270 271 273 273 275 279 279 279 280 280 283 287 287 287 287 286 286 289 288 288 291 292 290 287 288 291 293 295 294 292 291 293 297 298 296 293 291 290 287 281 279 281 282 284 286 286 285
263 265 266 267 268 269 270 271 272 273 273 274 274 275 276 276 277 277 278 279 280 281 282 284 285 286 287 289 290 289 290 289 287 282 274 277 284 282 280 277 273 272 274 276 274 275 279 280 278 279 281 284 287 287 287 286 285 286 287 287 287 289 291 288 287 286 287 291 294 292 292 291 291 294 295 294 293 290 286 285 282 280 284 285 284 285 284 282
265 266 267 268 269 269 271 272 272 273 273 274 274 275 276 276 277 278 279 279 280 281 282 283 284 285 286 287 288 287 289 287 284 278 268 276 285 282 279 275 273 274 278 280 277 277 279 279 279 280 282 284 287 287 285 285 286 287 285 286 290 291 291 288 284 285 287 290 291 291 293 291 291 291 289 290 292 287 281 281 283 284 289 289 287 287 286 282
266 266 267 268 269 270 271 271 272 273 273 274 274 275 276 276 277 278 278 279 280 281 281 282 283 284 285 286 285 285 288 285 280 274 270 278 283 281 278 274 273 276 278 278 278 277 278 278 280 282 283 284 285 285 285 282 284 287 283 283 289 291 291 289 287 288 289 290 289 289 291 292 292 289 285 283 285 284 283 285 287 288 290 289 288 288 287 284
266 267 267 268 269 269 270 271 272 272 273 274 274 275 275 276 276 277 278 278 279 280 281 281 282 283 284 284 283 282 283 281 278 275 275 278 280 279 276 273 273 276 276 276 277 276 277 278 278 280 283 284 283 282 286 283 282 286 284 283 286 287 287 289 290 290 289 289 288 288 291 293 291 289 285 276 275 280 284 287 288 289 290 290 289 287 285 283
267 268 268 268 269 270 271 272 272 273 274 274 275 275 275 276 276 277 277 278 278 279 280 281 281 282 283 282 280 279 277 276 278 277 278 278 278 276 273 272 273 275 275 276 276 275 277 276 276 280 282 284 283 282 286 285 282 285 287 286 286 286 284 286 289 288 288 287 286 288 291 290 287 290 290 278 275 280 285 287 287 288 289 288 287 285 284 282
268 269 269 270 270 271 271 272 273 274 275 275 276 276 277 277 277 278 278 278 279 279 279 280 281 281 282 279 278 278 273 275 280 279 278 276 276 274 272 273 275 275 274 275 276 275 277 275 275 280 281 284 285 284 286 286 283 282 285 288 287 287 285 286 288 287 286 286 286 288 288 286 285 290 291 284 281 283 285 287 287 287 287 286 286 285 284 283
268 269 269 270 271 271 272 273 274 274 275 276 276 277 278 278 278 278 279 279 279 279 279 280 280 281 280 277 277 276 273 278 282 279 276 275 275 274 272 275 274 274 275 276 277 275 276 276 276 278 282 285 284 285 285 285 285 283 285 289 289 288 287 288 287 285 285 286 286 286 285 284 286 290 288 285 285 286 285 286 287 287 287 286 286 286 284 283
268 269 269 270 271 272 272 273 274 275 275 276 277 277 278 278 278 278 278 278 278 278 278 278 279 279 277 275 274 273 276 280 280 278 277 276 276 274 274 276 273 272 275 277 276 274 276 278 279 280 283 285 284 285 284 284 289 290 290 291 289 288 288 287 286 285 285 286 284 282 283 284 286 289 287 288 290 288 287 287 287 287 287 287 287 286 285 284
268 268 269 270 271 272 273 274 274 275 276 277 277 278 278 278 278 277 277 277 277 276 276 276 277 276 274 273 271 271 277 279 279 278 277 276 276 274 275 275 273 272 274 276 275 275 277 279 280 281 283 284 284 284 284 285 290 293 293 291 289 288 288 285 284 285 285 287 285 280 282 283 284 285 282 285 288 289 288 288 287 287 287 287 286 286 285 284
268 269 269 270 271 272 273 274 275 276 277 277 278 278 278 278 278 277 277 276 275 275 274 274 274 273 273 272 270 272 277 277 277 278 277 277 276 275 275 275 274 273 274 276 275 275 277 278 275 277 282 283 285 286 286 288 289 291 292 291 290 289 288 285 285 286 286 288 288 283 284 283 280 279 279 282 286 288 288 287 287 287 287 287 286 285 285 285
268 269 269 270 271 272 273 275 276 277 277 278 278 279 279 278 278 277 276 276 275 274 273 272 272 272 273 273 273 275 276 275 275 277 277 276 276 276 276 275 274 274 274 276 276 275 275 276 273 276 281 282 285 287 288 289 288 289 289 289 291 289 288 287 287 290 289 287 286 284 285 285 283 281 283 285 287 289 288 287 287 286 287 287 286 286 285 285
267 268 269 270 271 272 274 275 276 277 278 278 279 279 280 279 278 277 277 276 274 273 272 272 271 271 271 272 275 276 275 275 275 275 276 275 275 276 275 275 275 274 275 276 277 276 273 275 275 277 280 281 285 287 287 288 286 288 289 287 289 287 288 290 288 289 291 287 283 284 285 286 287 288 288 290 290 290 289 288 288 287 287 287 286 286 286 286
265 267 268 269 271 272 274 275 277 277 278 279 279 280 280 279 278 278 277 276 274 272 271 271 271 271 272 273 275 275 275 275 274 275 275 274 274 275 275 275 275 275 275 275 276 275 273 274 275 278 280 281 283 285 286 286 285 287 287 285 286 286 288 290 287 285 288 288 283 282 285 286 287 289 290 291 290 289 288 288 289 288 287 286 286 285 285 286
265 266 267 269 270 271 273 275 276 278 278 279 280 280 279 278 278 278 277 276 274 271 271 272 270 271 274 275 274 274 275 274 274 275 275 274 273 274 274 274 275 275 275 275 275 275 274 275 276 278 280 281 282 284 285 285 284 284 284 285 286 286 289 291 289 285 286 287 282 279 284 287 289 291 291 290 289 288 287 288 288 287 287 286 285 285 285 286
265 266 267 268 270 271 273 275 276 278 279 280 281 280 278 276 277 277 276 275 274 272 272 272 271 272 273 274 274 274 274 274 274 275 274 273 273 271 272 273 274 274 274 275 274 275 276 276 277 278 279 282 283 283 282 281 283 285 284 285 286 286 287 290 291 291 286 284 283 280 281 285 288 290 290 290 289 288 286 287 287 287 287 286 286 286 285 285
266 267 268 269 270 272 274 275 277 278 280 281 281 279 277 276 276 275 274 273 273 272 272 272 271 272 273 273 274 274 274 274 273 274 273 273 272 271 272 273 272 271 272 274 275 274 276 277 278 277 278 281 280 278 277 279 284 286 285 286 287 285 284 286 290 292 289 285 285 284 283 286 288 288 288 288 289 288 286 286 287 287 287 287 287 285 285 286
266 267 268 269 271 272 274 275 277 279 280 281 280 277 276 275 275 274 274 273 272 272 273 271 269 272 275 274 275 275 274 273 273 273 273 272 272 271 272 272 271 270 270 273 274 273 275 276 275 276 277 277 275 274 275 280 285 286 286 285 286 286 285 286 288 290 291 288 286 285 286 288 290 289 290 290 289 288 287 288 289 288 287 286 285 285 287 288
266 268 269 269 271 273 274 275 277 279 281 280 279 277 275 276 275 273 273 273 272 273 274 272 269 272 275 275 275 274 274 273 273 273 271 271 270 269 271 271 270 270 272 273 273 274 275 273 272 274 276 276 275 274 276 282 286 285 285 284 284 285 286 288 290 291 292 290 287 286 287 289 290 291 291 290 289 288 289 291 290 288 286 285 286 288 289 287
266 267 268 270 271 272 274 274 276 279 280 279 279 277 275 276 275 274 276 275 273 273 273 272 272 272 274 274 273 273 273 273 273 272 270 269 268 268 269 269 269 271 273 275 275 275 274 271 272 273 275 279 279 278 278 281 282 281 282 283 283 284 286 288 290 291 293 289 287 288 288 289 290 291 289 288 288 290 290 290 288 285 285 287 291 291 288 285
265 266 268 269 270 272 273 274 276 278 278 277 278 276 275 276 276 276 277 276 275 275 274 274 274 273 273 273 271 271 272 272 272 271 268 267 266 268 268 268 269 271 272 273 274 274 272 272 273 273 276 281 281 279 278 277 278 280 281 283 283 285 288 288 288 291 292 288 289 291 291 291 291 289 288 288 287 287 287 286 285 286 288 291 293 291 287 285
265 266 267 267 268 270 272 273 275 276 276 275 276 275 275 276 276 277 278 276 277 276 274 274 273 272 272 272 271 270 270 271 272 270 266 265 265 267 267 266 269 272 271 268 270 272 273 274 275 275 277 278 277 277 277 278 279 278 279 281 282 285 288 287 288 291 291 288 290 292 291 291 290 287 290 292 287 286 288 288 289 291 293 292 290 287 286 283
264 265 265 266 267 268 270 272 273 273 274 274 274 274 274 275 276 277 278 277 277 277 275 274 273 273 273 273 272 269 268 270 272 270 266 263 263 266 266 266 268 270 269 266 267 270 273 278 279 278 277 275 275 276 276 277 278 277 277 278 281 284 284 284 289 293 291 288 289 293 293 291 289 290 295 294 289 291 293 293 293 294 292 289 287 285 283 280
264 264 265 266 266 267 269 271 271 270 272 272 272 273 273 274 275 277 279 278 278 279 278 275 274 273 273 274 273 270 269 270 270 269 266 263 263 266 268 267 268 269 268 267 269 271 274 278 278 278 278 274 274 275 274 275 277 277 276 274 277 281 282 284 288 292 291 287 290 297 296 289 286 291 295 295 294 295 296 297 296 296 293 288 287 285 282 280
263 263 264 265 265 267 269 269 268 269 271 270 271 273 273 274 276 277 280 280 279 280 279 275 273 273 272 274 274 270 269 271 271 269 266 264 264 266 268 268 269 271 270 270 271 272 276 279 277 275 275 273 272 274 275 274 275 277 278 277 276 278 281 283 285 287 287 286 290 293 291 287 287 289 292 295 295 292 294 299 301 304 302 294 293 293 291 288
262 263 263 263 263 265 266 267 267 268 269 270 271 272 273 274 276 278 280 280 278 278 277 273 272 273 274 274 272 269 271 273 273 270 267 266 265 266 268 268 269 271 270 271 272 272 274 277 277 274 272 271 271 275 276 272 272 276 280 281 278 278 280 280 281 282 282 287 288 285 285 286 287 289 291 293 293 290 291 299 304 309 304 299 301 298 294 289
261 261 261 261 261 262 264 265 266 267 268 268 269 271 273 274 275 277 278 277 277 277 274 271 272 275 275 273 272 273 275 274 273 271 269 267 268 268 269 269 269 270 268 268 270 272 273 273 272 271 270 272 274 279 276 268 271 278 280 281 280 280 279 278 279 280 282 286 283 279 282 285 285 287 290 293 292 289 292 303 307 301 296 299 299 292 286 283
262 261 261 260 259 261 263 264 264 266 266 266 268 271 273 274 274 276 274 273 276 277 275 273 272 275 275 272 272 274 274 273 273 271 269 268 269 271 272 272 271 270 269 269 270 273 275 273 272 270 272 275 276 280 277 269 272 277 277 280 281 280 280 279 279 280 281 281 277 275 276 281 286 285 285 291 290 280 282 297 305 300 296 297 295 290 286 284
263 263 262 260 260 261 262 262 263 264 265 265 267 270 272 272 272 271 268 269 274 276 275 274 273 274 273 271 273 274 272 273 273 272 271 271 270 271 273 273 273 272 271 272 272 273 274 275 275 273 274 278 278 279 278 274 276 277 276 279 280 279 280 279 278 279 278 276 275 273 268 272 282 283 281 283 279 276 280 288 295 297 297 295 291 289 288 287
264 265 263 261 262 262 262 263 262 262 262 263 265 268 270 272 271 267 266 270 274 274 273 274 274 274 272 272 274 273 273 274 273 271 273 274 272 272 273 273 273 274 274 273 273 274 273 272 275 275 276 278 278 277 277 277 277 277 278 281 281 279 279 277 275 275 274 275 279 278 272 268 271 276 279 278 277 279 282 283 287 291 293 292 288 287 288 288
264 265 264 262 262 262 262 264 262 260 260 261 264 267 268 270 267 263 266 273 274 273 272 272 273 273 272 274 274 274 275 275 273 274 275 275 274 272 272 272 274 275 275 274 276 276 274 272 275 278 276 274 274 275 276 276 275 276 276 278 278 279 278 275 274 274 273 275 278 279 277 271 268 271 273 277 281 282 280 280 281 284 288 286 284 286 289 288
263 264 263 261 260 260 261 261 260 258 259 261 263 266 267 266 265 263 265 269 270 271 271 271 273 273 273 274 275 275 276 275 273 275 276 276 275 274 272 273 275 276 276 276 278 278 277 276 275 275 276 272 269 272 274 275 273 271 272 272 272 275 277 276 276 277 276 276 276 275 273 272 274 275 272 275 283 283 282 281 281 283 283 280 281 284 287 289
261 261 260 259 259 258 258 256 256 257 258 259 261 264 263 262 265 266 265 265 267 268 268 269 272 273 272 273 275 274 275 275 275 275 275 275 275 275 273 273 272 274 276 277 277 277 276 278 274 272 275 271 266 270 274 275 272 270 272 272 271 272 274 276 276 276 278 278 274 271 270 272 276 277 274 277 284 283 282 282 282 283 280 277 281 283 285 288
261 261 261 260 259 258 256 254 254 256 256 257 259 260 258 260 264 266 265 266 267 268 269 269 271 272 272 272 274 274 273 275 276 275 274 273 273 274 274 274 271 271 274 275 276 275 274 275 277 277 278 272 269 273 275 274 273 272 273 272 272 273 273 274 275 275 278 278 272 269 270 272 274 275 275 277 278 279 280 280 281 282 281 281 283 284 284 284
261 260 260 260 259 258 256 255 254 255 255 256 258 259 259 262 264 265 267 268 268 270 272 272 271 272 272 272 274 274 273 274 275 275 274 273 274 274 274 276 272 268 271 273 275 276 274 275 277 279 278 274 274 276 274 273 273 273 272 271 275 278 275 273 274 275 274 274 272 270 272 275 276 277 277 274 273 275 278 280 280 280 281 282 282 282 281 281
259 258 258 257 257 255 253 251 251 252 252 254 256 259 262 264 263 264 266 268 269 271 271 271 272 272 272 273 273 274 274 275 275 275 275 275 275 274 274 277 274 269 271 275 276 275 275 276 276 275 277 277 278 278 275 274 275 273 273 275 278 278 274 272 273 274 271 271 272 271 272 275 276 276 276 272 271 274 277 277 278 279 280 280 279 279 279 280
260 260 260 258 256 254 252 250 250 251 254 255 256 259 263 264 264 264 266 267 270 271 269 269 270 271 271 272 273 273 273 273 274 274 274 275 275 275 276 277 276 274 275 276 275 276 277 278 277 276 277 278 277 276 275 275 275 275 275 277 276 274 272 270 270 272 272 272 273 270 269 272 271 272 273 272 272 275 275 275 277 278 278 278 277 278 279 279
260 260 261 260 256 253 251 251 252 254 257 258 258 261 264 265 266 266 267 269 270 270 269 269 270 271 271 270 272 273 272 272 273 274 274 274 274 274 276 277 277 278 278 274 274 277 278 278 278 278 278 279 277 274 273 274 275 275 274 273 272 272 273 271 270 273 273 273 275 273 270 270 270 272 273 272 273 275 274 274 276 276 276 277 277 277 278 278
259 259 261 260 256 251 250 252 253 255 258 260 262 265 267 268 269 269 268 269 269 269 270 270 269 270 271 270 271 272 272 271 271 272 272 273 274 275 276 277 276 277 277 274 274 277 277 276 276 277 277 277 275 274 274 274 273 272 270 270 270 270 272 273 271 270 271 274 275 275 273 272 273 275 273 271 274 274 273 274 275 276 276 277 277 277 277 278
258 260 261 259 255 250 249 253 256 258 260 263 264 266 267 268 269 269 268 267 267 269 270 270 269 270 271 271 271 272 272 271 271 271 271 272 273 274 276 278 277 275 274 274 274 275 276 275 275 276 275 274 274 275 275 274 273 272 271 269 270 270 271 273 273 269 269 271 273 275 276 274 274 275 273 272 273 274 274 275 275 276 276 276 277 278 279 280
258 261 261 259 254 248 249 255 259 261 262 263 265 266 266 267 267 267 268 268 267 269 270 270 269 270 270 270 271 271 271 271 271 270 270 271 270 271 275 277 276 275 274 275 275 275 276 275 274 274 274 273 275 275 275 274 273 273 272 272 273 273 271 272 275 275 273 273 274 276 276 275 276 275 273 272 273 274 275 275 276 276 277 278 279 281 282 283
259 261 261 259 253 248 250 257 259 260 262 264 266 266 266 267 268 267 268 268 268 269 270 269 269 269 269 270 270 270 270 271 270 270 271 271 271 273 276 277 276 275 276 276 277 277 277 275 275 275 275 275 275 275 274 274 273 272 272 272 273 273 273 273 275 278 277 274 275 276 274 275 278 276 273 272 272 273 275 275 276 276 277 279 281 283 284 284
258 259 260 259 253 249 253 259 259 260 262 263 263 263 264 265 266 266 267 267 267 268 269 269 269 269 270 271 271 270 270 271 272 271 271 272 273 274 277 279 278 277 277 276 276 278 277 275 277 279 279 278 276 275 275 275 274 273 274 274 274 274 275 275 275 276 274 271 270 272 274 276 277 275 274 273 273 273 274 275 275 275 276 278 281 283 284 284
258 259 259 258 255 253 257 261 261 260 260 260 261 262 263 264 265 265 264 265 266 266 267 269 269 269 270 271 272 271 270 270 272 273 273 273 275 275 277 278 278 276 276 276 276 277 277 275 276 278 278 277 277 276 276 276 277 277 276 276 276 276 276 277 277 275 274 273 270 271 274 276 276 275 274 274 273 273 273 274 275 275 276 277 279 280 282 283
258 259 259 258 257 256 260 262 261 260 260 260 261 262 262 263 265 264 263 264 265 264 266 268 268 269 269 269 270 271 269 269 270 272 273 274 275 275 276 276 276 275 274 275 276 276 276 275 273 274 274 275 276 277 278 278 278 278 277 276 276 276 276 278 277 274 276 278 275 273 276 277 276 276 277 276 275 275 275 275 275 275 276 276 277 278 280 281
258 259 258 258 258 258 260 261 260 261 261 259 260 263 262 262 264 265 264 265 266 265 266 267 267 267 268 268 269 270 270 269 269 270 272 273 274 275 276 276 277 276 274 275 276 275 275 274 273 273 273 274 276 277 278 278 278 277 277 277 276 276 276 276 275 274 277 278 276 275 277 277 277 278 278 278 276 276 276 276 276 276 276 276 277 278 278 279
258 259 258 257 259 259 260 260 260 260 260 259 261 264 264 263 263 264 265 267 268 267 267 268 268 266 267 269 270 270 271 271 270 271 272 274 275 275 276 275 276 278 277 276 276 276 275 275 274 274 275 275 276 277 278 278 277 277 277 276 277 276 276 275 275 276 276 275 275 278 279 277 278 279 279 278 278 277 277 277 277 277 277 276 277 277 277 278
258 259 259 258 260 261 262 262 261 260 260 260 261 263 263 263 263 264 267 268 268 268 267 268 269 269 270 271 271 271 271 272 273 273 274 275 275 275 276 276 276 278 279 278 278 277 276 276 277 277 276 276 276 277 277 277 277 276 276 276 276 276 275 275 276 276 275 274 275 278 277 277 278 279 279 279 279 278 277 277 277 277 277 276 276 276 277 278
258 258 259 259 260 261 262 263 262 262 261 261 262 263 263 263 264 265 267 268 267 268 268 268 270 271 271 271 270 271 272 273 274 274 274 274 275 275 276 276 276 278 279 278 278 278 277 277 278 278 278 277 276 277 278 277 276 276 275 275 276 276 276 275 275 276 276 275 275 276 276 277 279 279 279 278 278 277 277 277 277 277 277 276 275 275 276 277
257 258 258 259 260 260 261 262 262 262 262 261 262 264 264 264 265 266 268 269 269 269 269 269 270 271 270 270 270 271 272 273 273 274 275 275 276 277 277 277 277 278 278 278 278 278 277 278 280 281 279 278 278 279 279 279 278 276 275 275 276 276 275 275 275 276 276 277 277 276 276 277 278 278 277 277 277 277 276 277 277 276 276 275 274 274 275 276
257 258 258 259 260 259 259 261 261 261 262 263 264 265 266 267 268 267 267 269 271 271 271 271 271 272 272 272 273 272 272 273 274 275 276 275 276 276 275 275 275 275 275 276 277 277 277 279 281 282 280 279 280 281 281 281 279 276 275 277 277 276 276 276 276 275 276 277 277 277 277 277 277 277 277 277 277 277 277 277 277 276 275 274 273 274 274 276